KT4FD Weather Reports


Display with metric or nautical units.
time (UTC)temp
F
wind
direction
speed
MPH
gust
MPH
rain 1hr
in
rain 24hr
in
rain mn
in
humidity
%
barometer
mb
20260509180002 67 214 5.0 10.0 0.00 0.00 0.00 73 1014.2
20260509175002 67 258 3.0 9.0 0.00 0.00 0.00 74 1014.0
20260509174002 67 210 3.0 10.0 0.00 0.00 0.00 74 1014.0
20260509173002 66 221 3.0 9.0 0.00 0.00 0.00 76 1014.3
20260509172001 66 270 3.0 13.0 0.00 0.00 0.00 76 1014.4
20260509171001 66 218 5.0 12.0 0.00 0.00 0.00 78 1014.4
20260509170002 66 241 8.0 15.0 0.00 0.00 0.00 78 1014.8
20260509165002 65 215 7.0 12.0 0.00 0.00 0.00 80 1015.1
20260509164002 64 300 6.0 12.0 0.00 0.00 0.00 79 1015.2
20260509163001 64 263 6.0 12.0 0.00 0.00 0.00 79 1015.1
20260509162001 64 303 7.0 10.0 0.00 0.00 0.00 80 1015.0
20260509161002 64 211 6.0 12.0 0.00 0.00 0.00 81 1015.1
20260509160002 64 212 5.0 12.0 0.00 0.00 0.00 79 1015.1
20260509155002 64 210 9.0 14.0 0.00 0.00 0.00 80 1015.2
20260509154002 63 239 5.0 9.0 0.00 0.00 0.00 83 1015.0
20260509153002 63 209 6.0 10.0 0.00 0.00 0.00 85 1015.2
20260509152001 62 232 2.0 7.0 0.00 0.00 0.00 87 1015.3
20260509151002 61 211 3.0 7.0 0.00 0.00 0.00 87 1015.4
20260509150002 61 200 4.0 7.0 0.00 0.00 0.00 86 1015.5
20260509145002 60 220 2.0 5.0 0.00 0.00 0.00 86 1015.5
20260509144002 60 219 2.0 5.0 0.00 0.00 0.00 86 1015.3
20260509133002 58 278 1.0 2.0 0.00 0.00 0.00 86 1014.5
20260509122002 56 249 0.0 0.0 0.00 0.00 0.00 87 1014.5
20260509121002 56 250 0.0 1.0 0.00 0.00 0.00 87 1014.5
20260509120002 55 279 0.0 1.0 0.00 0.00 0.00 87 1014.6
20260509115002 55 229 0.0 1.0 0.00 0.00 0.00 87 1014.8
20260509114002 55 229 0.0 0.0 0.00 0.00 0.00 87 1015.0
20260509092002 52 218 0.0 0.0 0.00 0.00 0.00 87 1015.1
20260509091002 52 218 0.0 0.0 0.00 0.00 0.00 87 1015.0
20260509090002 52 218 0.0 0.0 0.00 0.00 0.00 87 1014.7
20260509085002 52 218 0.0 0.0 0.00 0.00 0.00 87 1014.8
20260509084002 52 218 0.0 0.0 0.00 0.00 0.00 87 1014.7
20260509083002 52 218 0.0 0.0 0.00 0.00 0.00 87 1014.7
20260509082002 52 218 0.0 0.0 0.00 0.00 0.00 87 1015.2
20260509081002 51 218 0.0 0.0 0.00 0.00 0.00 87 1015.1
20260509080002 51 218 0.0 0.0 0.00 0.00 0.00 87 1015.0
20260509075002 51 218 0.0 0.0 0.00 0.00 0.00 87 1014.7
20260509074002 51 218 0.0 0.0 0.00 0.00 0.00 87 1014.5
20260509073002 51 218 0.0 0.0 0.00 0.00 0.00 87 1014.3
20260509072002 51 218 0.0 0.0 0.00 0.00 0.00 87 1014.6
20260509050002 52 218 0.0 0.0 0.00 0.00 0.00 86 1016.1
20260509045002 52 218 0.0 0.0 0.00 0.00 0.00 86 1016.0
20260509044002 53 218 0.0 0.0 0.00 0.00 0.00 86 1016.1
20260509043002 52 218 0.0 0.0 0.00 0.00 0.00 86 1016.4
20260509042002 53 218 0.0 0.0 0.00 0.00 0.00 86 1016.7
20260509041002 53 218 0.0 0.0 0.00 0.00 0.00 86 1016.7
20260509030002 54 218 0.0 0.0 0.00 0.00 0.00 86 1017.5
20260509025002 55 218 0.0 0.0 0.00 0.00 0.00 86 1017.3
20260509024002 55 218 0.0 0.0 0.00 0.00 0.00 86 1017.3
20260509023002 55 218 0.0 0.0 0.00 0.00 0.00 86 1017.2
20260509022003 56 218 0.0 0.0 0.00 0.00 0.00 86 1017.0
20260509021002 56 218 0.0 0.0 0.00 0.00 0.00 86 1017.0
20260509020003 56 218 0.0 0.0 0.00 0.00 0.00 86 1017.0
20260509015002 56 218 0.0 0.0 0.00 0.00 0.00 86 1016.8
20260509014002 56 218 0.0 0.0 0.00 0.00 0.00 86 1016.8
20260509013002 56 218 0.0 0.0 0.00 0.00 0.00 85 1016.5
20260509012002 56 218 0.0 0.0 0.00 0.00 0.00 85 1016.6
20260509011002 57 218 0.0 0.0 0.00 0.00 0.00 85 1016.6
20260509010003 57 218 0.0 0.0 0.00 0.00 0.00 85 1016.6
20260509005002 57 218 0.0 0.0 0.00 0.00 0.00 84 1016.6
20260509004002 58 218 0.0 0.0 0.00 0.00 0.00 84 1016.6
20260509003002 59 218 0.0 0.0 0.00 0.00 0.00 83 1016.8
20260509002002 59 218 0.0 0.0 0.00 0.00 0.00 82 1016.7
20260509001002 60 218 0.0 0.0 0.00 0.00 0.00 80 1016.5
20260509000002 60 218 0.0 0.0 0.00 0.00 0.00 78 1016.5
20260508224002 64 167 0.0 0.0 0.00 0.00 0.00 70 1016.7
20260508223002 65 167 0.0 0.0 0.00 0.00 0.00 69 1016.8
20260508222002 65 167 0.0 0.0 0.00 0.00 0.00 69 1016.8
20260508221002 65 186 0.0 0.0 0.00 0.00 0.00 69 1016.7
20260508220003 65 186 0.0 1.0 0.00 0.00 0.00 68 1016.7
20260508215002 66 186 0.0 2.0 0.00 0.00 0.00 67 1016.5
20260508214002 66 186 1.0 3.0 0.00 0.00 0.00 65 1016.7
20260508213002 66 186 1.0 3.0 0.00 0.00 0.00 65 1016.6
20260508212002 66 186 2.0 3.0 0.00 0.00 0.00 64 1016.5
20260508211002 67 187 1.0 2.0 0.00 0.00 0.00 64 1016.4
20260508210002 67 187 2.0 3.0 0.00 0.00 0.00 62 1016.6
20260508205002 67 187 3.0 6.0 0.00 0.00 0.00 59 1016.8
20260508204002 68 107 2.0 5.0 0.00 0.00 0.00 56 1016.8
20260508203003 68 202 3.0 5.0 0.00 0.00 0.00 60 1016.9
20260508202002 68 101 1.0 3.0 0.00 0.00 0.00 58 1016.8
20260508201002 68 147 2.0 5.0 0.00 0.00 0.00 59 1016.6
20260508200003 68 185 2.0 5.0 0.00 0.00 0.00 58 1016.8
20260508195002 68 186 1.0 3.0 0.00 0.00 0.00 55 1017.2
20260508194003 69 186 2.0 5.0 0.00 0.00 0.00 57 1017.3
20260508193003 69 188 4.0 10.0 0.00 0.00 0.00 58 1017.8
20260508192002 69 185 5.0 7.0 0.00 0.00 0.00 56 1017.6
20260508191002 69 192 2.0 6.0 0.00 0.00 0.00 57 1017.5
20260508190003 69 215 4.0 8.0 0.00 0.00 0.00 55 1017.7
20260508185002 69 200 1.0 9.0 0.00 0.00 0.00 53 1017.9
20260508184002 68 219 2.0 5.0 0.00 0.00 0.00 55 1018.1
20260508183002 68 213 2.0 8.0 0.00 0.00 0.00 52 1018.2
20260508182002 68 237 5.0 7.0 0.00 0.00 0.00 53 1018.4
20260508181002 68 208 4.0 7.0 0.00 0.00 0.00 60 1018.5